sat.trackr.live / text

‹ back to catalog

STARLINK-36863

NORAD 67949 · 2026-037T

PAYLOAD ACTIVE UNKNOWN

§ Identity

Operator
Country
US
Launch date
2026-02-24
Launch site
AFETR
Launch vehicle
Mass (kg)
RCS (m²)

Purposes: comms

External: N2YO · Heavens-Above · Gunter

§ Orbital elements

Epoch: 2026-05-24T23:35:09.377952Z

Period
94.27 min
Inclination
43.0001°
Eccentricity
0.0001146
Mean motion
15.27594782 rev/d
Perigee alt
482.2 km
Apogee alt
483.8 km
Semi-major
6,861.1 km
B*
4.4109e-4
RAAN
119.4251°
Arg perigee
260.4992°
Mean anomaly
99.5730°
Rev number
1,501

§ Raw data

STARLINK-368631 67949U 26037T   26144.98274743  .00011901  00000+0  44109-3 0  99962 67949  43.0001 119.4251 0001146 260.4992  99.5730 15.27594782 15012

JSON: /api/v1/satellites/67949 · /tle

For live sub-satellite position, see the globe view (requires WebGL).

§ Visibility from observer

Set your observer location to see the next 7 days of passes ≥ 10°. The values pass through the URL so the page stays shareable.

No JS? Fill the form by hand. The geolocation button needs JavaScript.